User: anonymous   Login
Location: Caltech
(34.1382°N, 118.1253°W)
Time: 13:49:07
(UTC-08:00)
Language:

Cosmos 1508 Rocket - Orbit

View from above orbital plane
View from above orbital plane
View from above satellite
View from above satellite

Ground track
Ground track

The orbit data is extracted from the following two-line orbital elements,

1 14484U 83111B   14331.15069624  .00065902  00000-0  75071-3 0  7117
2 14484 082.8339 170.2133 0174278 045.6190 092.9034 15.45632106597592
Epoch (UTC): 27 November 2014 03:37:00
Eccentricity: 0.0174278
inclination: 82.8339°
perigee height: 311 km
apogee height: 548 km
right ascension of ascending node: 170.2133°
argument of perigee: 45.6190°
revolutions per day: 15.45632106
mean anomaly at epoch: 92.9034°
orbit number at epoch: 59759

The dashed part of the orbit path shows where the satellite is in the earth's shadow,  

DLR